map of MEC home
MEC - Airport
Location
City:  Manta, Manabí, Ecuador
Name:Eloy Alfaro International Airport
ICAO:SEMT
IATA:MEC

Details
Type:Airport (Aerodrome, Airfield)
Use:Public/Civil, Military, International (customs port of entry)
Latitude:0°56'46"S (-0.946077)
Longitude:80°40'44"W (-80.678807)
Datum:WGS 1984
Elevation:48 ft (15 m)
Variation:1.86°W (WMM2015 magnetic declination)
-0.16° annual change
Runways:1
Longest:9383 × 148 ft (2860 × 45 m), paved

Time
Time Zone:UTC-5
Local Time:

Weather
METAR:SEMT 150100Z 18006KT 9999 OVC020 24/22 Q1010
TAF:SEMT 141545Z 1418/1518 20010KT 9999 BKN020
BECMG 1501/1503 20003KT TX28/1420Z TN23/1510Z

Related Locations
Nearby:
Farthest:AEG: 12443 mi / 20025 km
Padang Sidempuan [Aek Godang Airport], SU, ID

Find:

   beyond  
but within

Other Information
Maps:
NOTAMs:
Links:
Sources:

  
flag of Ecuador
flag of Manabí
  

Airport Diagram

Airport diagram for MEC

Larger airport diagram (OBSOLETE) from NGA

Sectional Chart

Flight Planning
at skyvector.com

Satellite Image

Google Maps Satellite view

 

Copyright © 2004-2017 Karl L. Swartz. All rights reserved.
The Great Circle Mapper name and logo are trademarks of the Great Circle Mapper.
All other trademarks mentioned herein belong to their respective owners.
Please see credits for attibutions and further copyright information.

  Follow gcmap on Facebook Follow gcmap on Twitter Follow gcmap on Google+ GCmap on LinkedIn

hCard Microformat

Geo Microformat